Location: Biache-Saint-Vaast
(50.3122°N, 2.9448°E)
Time: 09:28:06
(UTC+00:00)

Daily predictions for brighter satellites

Satellite Brightness Start Highest point End
(mag) Time Altitude Azimuth Time Altitude Azimuth Time Altitude Azimuth
Gbstr 26 Del rocket 4.5 19:59:24 10° WNW 20:07:26 86° NNE 20:14:22 10° ESE
SJ-6B 4.4 20:05:20 10° SSW 20:09:01 37° W 20:12:49 10° NNW
BREEZE M DEB (TANK) 4.3 20:04:59 10° W 20:09:05 84° S 20:23:49 10° E
Terra 3.5 20:13:15 10° ESE 20:16:44 21° ENE 20:20:15 10° NNE
Meteor 1-11 Rocket 4.3 20:11:39 10° N 20:17:26 48° ENE 20:23:06 10° SE
MetOp-B 4.3 20:12:34 10° SSE 20:17:52 67° ENE 20:23:12 10° N
Cosmos 1515 Rocket 3.6 20:16:35 10° S 20:20:54 62° E 20:25:14 10° NNE
Cosmos 1340 Rocket 4.4 20:18:05 10° NNE 20:21:21 22° ENE 20:24:36 10° ESE
Cosmos 1633 Rocket 4.1 20:17:33 10° NNW 20:21:48 46° W 20:26:01 10° SSW
Cosmos 2228 Rocket 4.0 20:19:51 10° SSE 20:23:45 31° E 20:27:43 10° NNE
Tianhe-1 3.1 20:22:21 10° SSW 20:23:48 13° SSE 20:25:05 11° SE
Cosmos 2315 Rocket 4.3 20:18:15 10° SSW 20:24:38 80° W 20:31:03 10° N
Cosmos 1869 Rocket 4.3 20:21:03 10° N 20:25:05 36° ENE 20:29:01 10° SE
Resurs 01 Rocket 1.8 20:23:00 10° S 20:27:27 75° WSW 20:31:54 10° NNW
BREEZE M DEB (TANK) 2.1 20:24:04 10° W 20:29:09 60° SSW 20:31:13 12° ESE
SWARM C 4.5 20:25:58 10° N 20:29:18 77° E 20:32:36 10° S
SWARM A 4.2 20:26:04 10° N 20:29:25 80° E 20:32:43 10° S
Cosmos 2082 Rocket 2.3 20:24:12 10° NNW 20:29:51 85° WSW 20:35:29 10° SSE
Cosmos 1328 Rocket 4.2 20:27:35 10° SSW 20:31:57 61° WNW 20:36:20 10° N
USA 305 4.4 20:29:16 10° W 20:32:48 26° SW 20:36:20 10° SSE
SPOT 1/Viking Rocket 3.6 20:28:15 10° SSE 20:33:25 72° ENE 20:38:35 10° N
ERS-1 Rocket 3.7 20:29:27 10° SE 20:34:02 39° ENE 20:38:42 10° N
Cosmos 1470 Rocket 4.4 20:34:52 10° NNW 20:39:15 53° W 20:43:36 10° S
Cosmos 1943 Rocket 3.3 20:35:23 10° SSE 20:39:46 24° ESE 20:44:09 10° NE
Spot 2 Rocket 3.6 20:35:19 10° SSE 20:40:14 62° ENE 20:45:14 10° N
EP 1 4.2 20:38:15 10° SW 20:41:18 74° SE 20:43:55 10° NE
ERBS 2.5 20:38:44 10° NW 20:42:02 64° NNE 20:44:57 13° ESE
OBJECT-B 3.8 20:40:40 10° WSW 20:42:10 13° W 20:43:40 10° WNW
Meteor 1-10 Rocket 4.2 20:37:52 10° S 20:43:25 69° E 20:49:08 10° NNE
Cosmos 1536 3.2 20:41:35 10° N 20:45:31 48° ENE 20:48:44 14° SSE
CARTOSAT-1 3.8 20:42:26 12° SSE 20:46:15 57° ENE 20:50:30 10° N
Landsat 7 4.2 20:41:43 10° S 20:46:27 65° WSW 20:51:12 10° NNW
CZ-2C R/B 3.7 20:42:14 10° NNE 20:46:46 71° ESE 20:51:21 10° S
SPOT 5 3.5 20:42:26 12° SE 20:47:00 49° ENE 20:52:10 10° N
SPOT 3 Rocket 4.1 20:44:49 10° S 20:49:53 56° W 20:54:58 10° NNW
Cosmos 1271 Rocket 2.7 20:46:17 10° S 20:50:17 82° E 20:54:18 10° NNE
Cosmos 1680 Rocket 3.6 20:47:36 10° NNW 20:52:58 81° ENE 20:57:31 14° SSE
Cosmos 1933 Rocket 4.1 20:48:44 10° NNW 20:53:00 56° W 20:57:16 10° S
ISS -3.4 20:51:45 10° SW 20:54:56 40° SSE 20:58:07 10° E
Cosmos 2278 Rocket 2.7 20:50:44 10° SW 20:56:20 64° WNW 21:01:59 10° NNE
Cosmos 2084 Rocket 3.5 20:53:13 10° NW 20:57:29 89° NNE 21:00:52 17° SE
Cosmos 1544 3.5 20:55:22 10° N 20:58:53 47° ENE 21:01:17 18° SE
SJ 16-02 1.9 20:54:29 10° SSW 20:58:54 63° WNW 21:03:19 10° NNE
Cosmos 2369 Rocket 3.6 20:58:46 15° SE 21:01:13 19° E 21:05:08 10° NE
Cosmos 1666 3.9 21:02:01 10° NNW 21:05:30 39° W 21:08:59 10° SSW
JB-3 4.3 21:04:59 10° NNE 21:08:50 62° E 21:12:01 14° S
Cosmos 1733 Rocket 3.9 21:05:50 10° N 21:09:50 35° ENE 21:12:25 19° SE
ARIANE 5 R/B 2.7 21:10:14 15° S 21:13:49 73° WSW 21:18:10 10° NNW
RESURS DK-1 4.0 21:11:03 10° NNW 21:14:38 26° NE 21:17:43 12° E
BREEZE-M DEB (TANK) 1.7 21:16:28 10° W 21:18:24 39° SSW 21:18:57 32° SSE
Iridium 4 Rocket 4.1 21:13:40 10° SSW 21:19:32 69° W 21:25:26 10° N
USA 245 3.8 21:18:31 15° SSW 21:19:54 27° W 21:22:05 10° NW
CZ-4B DEB 4.5 21:21:13 27° SE 21:22:44 56° ENE 21:25:54 10° N
Cosmos 990 Rocket 4.0 21:19:42 10° SSW 21:24:57 86° ESE 21:30:15 10° NNE
Cosmos 1898 Rocket 3.5 21:22:39 10° SSW 21:27:57 76° ESE 21:33:19 10° NNE
ATLAS 2AS CENTAUR R/B 3.2 21:22:23 10° NW 21:29:32 55° WSW 21:34:29 19° SSE
USA 215 4.2 21:23:43 10° ENE 21:29:58 50° N 21:36:13 10° WNW
Meteor 1-27 Rocket 3.9 21:25:35 10° SSW 21:31:27 82° WNW 21:37:27 10° N
Cosmos 44 4.2 21:27:23 10° NW 21:32:33 46° WSW 21:35:56 20° S
Cosmos 1818 3.7 21:29:53 10° NW 21:35:21 65° SW 21:38:46 23° SSE
Cosmos 2154 Rocket 4.4 21:29:17 10° NNW 21:35:33 64° W 21:40:59 14° S
Cosmos 1743 2.7 21:33:07 10° N 21:37:00 85° W 21:39:06 26° S
Cosmos 962 Rocket 4.4 21:34:16 10° N 21:40:27 87° E 21:44:45 21° S
Nadezhda 1 Rocket 4.2 21:36:19 10° SSW 21:42:35 71° WNW 21:48:47 10° N
Meteor 1-19 Rocket 4.4 21:43:17 24° SSE 21:46:17 49° E 21:51:30 10° NNE
BREEZE-M R/B 1.8 21:45:04 10° W 21:47:29 64° S 21:47:59 49° SE
H-2A R/B 3.4 21:45:51 10° NNE 21:50:03 75° ESE 21:52:23 25° S
Cosmos 44 Rocket 4.4 21:47:13 10° NNW 21:52:12 42° NE 21:56:13 15° ESE
Terra 2.1 21:51:09 23° S 21:54:04 65° WSW 21:58:49 10° NNW
Gbstr 26 Del rocket 4.4 21:47:18 10° WNW 21:54:38 53° SW 21:58:21 25° SSE
Cosmos 1461 3.0 21:50:58 10° SSW 21:55:40 74° SE 22:00:16 10° NE
Okean 1-7 4.4 21:56:31 21° ESE 21:57:32 23° E 22:00:57 10° NE
Cosmos 1340 Rocket 3.9 21:54:08 10° NNW 21:57:58 39° W 22:00:21 20° SSW
Cosmos 1862 Rocket 3.5 21:57:49 31° S 21:59:47 67° E 22:04:06 10° NNE
Cosmos 2297 3.9 21:55:27 10° SW 22:01:09 73° WNW 22:06:51 10° NNE
Okean 1 3.2 22:00:55 31° S 22:02:45 84° E 22:06:45 10° NNE
ATLAS CENTAUR R/B 2.2 22:10:15 27° ESE 22:10:15 27° ESE 22:13:01 10° ENE
Cosmos 1607 4.3 22:06:38 23° S 22:10:27 48° ESE 22:16:39 10° NE
ERS-1 Rocket 4.2 22:09:26 16° SSW 22:12:53 34° W 22:17:28 10° NNW
Cosmos 2082 Rocket 4.4 22:09:56 10° WNW 22:13:04 15° W 22:16:13 10° SW
Cosmos 2366 rocket 4.0 22:09:12 10° N 22:15:26 90° E 22:18:59 28° S
Cosmos 1515 4.1 22:13:58 26° SSW 22:15:54 57° WNW 22:19:39 10° N
ERBS 3.9 22:15:16 10° W 22:17:42 21° SW 22:17:42 21° SW
Cosmos 2181 Rocket 3.9 22:16:13 24° S 22:20:08 88° E 22:26:18 10° N
Cosmos 1937 Rocket 4.1 22:17:28 10° SW 22:22:31 56° WNW 22:27:39 10° NNE
Cosmos 1943 Rocket 2.5 22:17:27 10° SW 22:23:02 66° WNW 22:28:38 10° NNE
ISS -3.6 22:28:15 10° W 22:31:38 76° N 22:35:01 10° ENE
Cosmos 1867 3.5 22:28:40 25° SSW 22:31:51 66° SE 22:37:18 10° NE
Cosmos 1656 Rocket 3.7 22:30:07 32° S 22:32:28 58° ESE 22:37:55 10° NE
Spot 4 3.9 22:30:35 35° SSE 22:32:36 72° ENE 22:37:27 10° N
Cosmos 1238 Rocket 4.3 22:29:33 10° NNW 22:35:07 46° W 22:37:52 24° SSW
Cosmos 1975 3.3 22:36:05 10° NNW 22:39:57 51° W 22:41:09 37° SW
Cosmos 1048 Rocket 4.0 22:35:21 10° NNW 22:40:40 77° WSW 22:42:47 37° S
Cosmos 2369 Rocket 2.2 22:40:29 19° SW 22:44:34 80° WNW 22:50:17 10° NNE
Cosmos 2098 4.0 22:41:44 10° N 22:44:44 82° W 22:44:52 78° SW
Cosmos 2218 Rocket 4.4 22:38:56 10° NNW 22:45:05 57° W 22:48:39 26° SSW
Cosmos 2344 4.3 22:37:36 10° NW 22:46:35 87° NE 22:56:38 18° SE
ALOS 2 2.9 22:47:43 38° SE 22:49:09 59° ENE 22:53:29 10° N
Okean 3 4.0 22:51:44 39° ESE 22:52:30 44° E 22:56:31 10° NNE
RESURS DK-1 2.9 22:48:51 10° NW 22:52:51 45° WSW 22:53:36 40° SW
SL-27 R/B 2.3 22:49:33 10° NNW 22:52:53 69° WSW 22:53:01 68° SW
Lacrosse 5 2.7 22:54:17 31° SE 22:54:17 31° SE 22:58:30 10° ENE
Cosmos 1356 Rocket 3.5 22:52:17 10° N 22:56:36 70° ENE 22:57:43 47° SE
NOSS 2-1 (E) 4.2 22:52:09 10° NW 22:56:54 78° NE 23:00:42 25° SE
Cosmos 1269 Rocket 4.5 22:55:25 10° NNW 23:00:38 55° ENE 23:03:10 29° SE
Cosmos 1300 Rocket 4.2 22:57:24 10° N 23:01:40 46° ENE 23:02:56 35° ESE
Nadezhda 3 Rocket 4.0 22:59:44 34° S 23:02:32 72° E 23:08:42 10° NNE
Cosmos 1908 Rocket 4.4 23:03:26 10° NNW 23:07:40 42° W 23:09:03 32° SW
Meteor 1-12 Rocket 4.2 23:04:04 10° NNW 23:09:57 85° W 23:12:18 38° S
USA 215 3.7 23:06:05 10° E 23:12:30 63° NNE 23:18:57 10° WNW
Cosmos 2298 Rocket 4.1 23:09:55 30° SW 23:12:34 76° WNW 23:17:54 10° NNE
Thor Agena Rocket 4.3 23:09:12 10° NNE 23:14:09 40° E 23:15:40 33° SE
Sich 1 Rocket 3.7 23:10:52 10° N 23:15:26 71° ENE 23:16:39 46° SE
COSMOS 2455 3.5 23:11:15 10° NNW 23:17:11 53° NE 23:21:45 17° ESE
Cosmos 1805 3.4 23:13:56 10° N 23:17:49 63° ENE 23:18:27 53° SE
Cosmos 494 Rocket 4.4 23:14:00 10° NNW 23:18:59 50° WSW 23:20:31 37° SSW
Cosmos 1726 4.4 23:16:56 10° NNE 23:19:17 16° ENE 23:20:43 13° E
Cosmos 1378 3.0 23:22:00 66° SW 23:22:26 79° W 23:26:11 10° N
Cosmos 2242 Rocket 4.3 23:21:30 32° SW 23:23:11 48° WNW 23:27:34 10° N
Cosmos 1066 Rocket 4.2 23:22:33 39° S 23:24:43 74° E 23:30:19 10° NNE
MTI 3.9 23:22:12 10° NNE 23:24:49 60° NE 23:24:49 60° NE
Okean 2 Rocket 3.2 23:22:38 10° N 23:27:01 65° ENE 23:28:09 46° SE
Meteor 1-15 Rocket 4.2 23:21:54 10° NNW 23:27:40 85° ENE 23:30:02 38° SSE
COBE Rocket 4.0 23:26:12 43° S 23:27:56 77° WSW 23:33:09 10° NNW
Cosmos 2151 Rocket 4.0 23:24:35 10° N 23:29:02 54° ENE 23:30:21 39° SE
Cosmos 2227 Rocket 3.6 23:27:13 10° NNW 23:32:22 34° NE 23:37:30 10° ESE
Cosmos 44 Rocket 3.8 23:28:52 10° NW 23:33:52 46° WSW 23:34:54 40° SSW
Cosmos 2297 Rocket 3.2 23:29:17 10° NNW 23:34:42 43° NE 23:39:09 15° ESE
Okean 1-7 4.0 23:33:20 29° WSW 23:34:53 39° WNW 23:38:57 10° N
SAR-Lupe-2 3.4 23:31:41 10° NNE 23:35:17 84° WNW 23:35:36 72° SW
Cosmos 1766 3.3 23:32:23 10° N 23:36:21 70° ENE 23:36:58 57° SE
NOSS 2-1 (C) 4.4 23:38:26 10° NW 23:43:12 54° SW 23:45:14 38° S
COSMOS 2487 2.6 23:43:02 10° NNW 23:46:11 59° W 23:46:11 59° W
Cosmos 1125 Rocket 4.0 23:44:32 26° SW 23:47:16 54° WNW 23:52:24 10° NNE
ATLAS CENTAUR R/B 2.4 23:46:20 20° W 23:48:29 38° NW 23:52:07 10° NNE
Cosmos 1934 Rocket 4.0 23:44:52 10° NNW 23:50:58 70° W 23:53:27 37° SSW
BREEZE-M DEB (TANK) 4.0 23:50:21 10° WNW 23:51:45 21° WNW 23:51:45 21° WNW
Cosmos 1378 Rocket 4.2 23:53:20 37° SE 23:54:14 43° E 23:58:21 10° NNE
Cosmos 1470 3.7 23:52:12 10° N 23:55:58 41° ENE 23:57:01 34° ESE
